[[{"header":{"parameterUnit":"m.s-1","parameterCategory":1,"la1":30.2991,"la2":30.254,"lo1":-89.0895,"lo2":-89.0444,"dx":0.0017,"dy":0.0017,"nx":28,"ny":28,"refTime":"2023-01-17T09:00:00:Z","depth":0,"parameterNumber":2,"parameterNumberName":"U-component_of_WINDS"},"data":[0,0,0,0,0,0,0,0,0,0,0,0,0,0,0,0,0,0,0,0,0,0,0,0,0,0,0,0,0,0,0,0,0,0,0,0,0,0,0,0,0,0,0,0,0,0,0,0,0,0,0,0,0,0,0,0,0,0,0.9484,0.9485,0,0.9577,0.9578,0.9579,0.9588,0.9587,0.9586,0.9585,0.9684,0.9687,0.9691,0,0,0,0,0,0,0,0,0,0,0,0,0,0.9317,0.932,0.9484,0.9485,0.9486,0.9577,0.9578,0.9579,0.9588,0.9587,0.9586,0.9585,0.9683,0.9687,0.9691,0,0,0,0,0,0,0,0,0,0,0,0,0,0.9398,0.9321,0.9484,0.9502,0.9504,0.9576,0.9578,0.958,0.9589,0.9587,0.9586,0.9584,0.9681,0.9686,0.9692,0.9753,0,0,0.9708,0.971,0,0,0,0,0,0,0,0,0.9393,0.9404,0.9498,0.9501,0.9504,0.9569,0.9555,0.9638,0.9589,0.9557,0.9585,0.9584,0.9647,0.9655,0.9676,0.9758,0.9762,0.9708,0.9711,0.9714,0.9715,0,0,0,0,0,0,0,0.9387,0.94,0.9521,0.9499,0.9503,0.9506,0.9516,0.9571,0.9609,0.9559,0.956,0.9571,0.9648,0.9671,0.9678,0.9763,0.9708,0.9713,0.9716,0.9718,0.99,0.9902,0,0,0,0,0,0,0.9378,0.9395,0.9518,0.9524,0.9443,0.951,0.9521,0.955,0.9608,0.9616,0.9572,0.9571,0.9662,0.9672,0.9682,0.9758,0.9714,0.9718,0.9722,0.9899,0.9901,0.9902,0,0,0,0,0,0,0.9375,0.9389,0.9514,0.946,0.9476,0.9514,0.9547,0.9552,0.9575,0.9618,0.9625,0.9588,0.9662,0.9674,0.9735,0.9761,0.9721,0.9726,0.9897,0.9899,0.9901,0.9911,0,0,0,0,0,0,0.937,0.9388,0.9411,0.946,0.9479,0.9565,0.9548,0.9555,0.9583,0.9583,0.9635,0.9642,0.9661,0.9727,0.974,0.9768,0.973,0.9894,0.9898,0.9901,0.9908,0.9913,0.9917,0,0,0,0,0,0.9364,0.9411,0.9412,0.9427,0.9509,0.9567,0.9578,0.9598,0.9585,0.961,0.9637,0.964,0.9756,0.9733,0.9748,0.9778,0.9893,0.9897,0.99,0.9906,0.9912,0.9917,0,0,0,0,0,0,0.9365,0.9418,0.942,0.9484,0.9521,0.9568,0.96,0.9604,0.9646,0.9644,0.9669,0.9681,0.974,0.9765,0.9739,0.984,0.9823,0.983,0.9822,0.9828,0.9833,0.9827,0.9734,0,0,0,0,0,0.9373,0.9415,0.9459,0.9511,0.9529,0.9561,0.9587,0.96,0.9639,0.9655,0.9688,0.9727,0.9772,0.9801,0.9845,0.9911,0.9923,0.9939,0.9943,0.9947,0.9953,0.999,0.9998,0.9915,0.9915,0.9915,0,0,0.939,0.9423,0.9449,0.9512,0.9542,0.9586,0.9574,0.9621,0.9654,0.9663,0.9722,0.9747,0.9792,0.9855,0.9885,0.9878,0.9978,0.9952,0.9954,0.9959,0.9994,1.0002,1.0009,0.9917,0.9917,0.9916,0,0,0.9443,0.9472,0.9519,0.9548,0.9593,0.9614,0.9625,0.9672,0.9688,0.9748,0.9755,0.9794,0.9872,0.9904,0.993,0.9993,0.9997,1.0006,1.0031,1.0067,1.0073,1.0079,1.0103,1.0111,1.0012,1.0012,1.0012,0,0.9458,0.9524,0.9543,0.9589,0.9617,0.9625,0.9673,0.9701,0.9759,0.9778,0.9768,0.9865,0.9896,0.9967,0.9982,1.0003,1.0017,1.0002,1.0071,1.0077,1.0083,1.0105,1.0114,1.0013,1.0013,1.0013,1.0013,0,0.9541,0.9586,0.9619,0.9673,0.9704,0.9751,0.9777,0.9807,0.9816,0.9838,0.9898,0.9935,0.9987,1.0004,1.0014,1.0076,1.0071,1.0065,1.0049,1.0091,1.0113,1.0122,1.0014,1.0014,1.0014,1.0014,0,0,0.96,0.9662,0.9674,0.9698,0.9748,0.9783,0.983,0.9879,0.9905,0.9943,0.9984,1.0048,1.0044,1.0073,1.0087,1.0118,1.0166,1.0109,1.011,1.0119,1.0238,1.0242,1.0252,1.0168,1.017,1.0171,1.0234,0,0.9659,0.9743,0.9761,0.9833,0.9876,0.9883,0.9924,0.9959,0.998,1.0019,1.0043,1.0088,1.0078,1.0096,1.0127,1.0153,1.019,1.0149,1.0208,1.0209,1.0198,1.0263,1.0268,1.0326,1.0243,1.0244,1.0245,0,0.9741,0.978,0.9857,0.99,0.9918,0.9955,1.0001,1.0038,1.0078,1.0091,1.0123,1.0132,1.0182,1.0162,1.0231,1.0203,1.0227,1.0244,1.0246,1.0254,1.0231,1.0274,1.0345,1.0354,1.0258,1.0257,1.0256,0,0.9777,0.9849,0.9904,0.9925,0.9976,1.0002,1.0025,1.0063,1.0091,1.0131,1.015,1.0195,1.0221,1.0256,1.0278,1.0261,1.0346,1.0327,1.0359,1.0359,1.0379,1.0377,1.0456,1.0392,1.0391,1.0391,1.0391,0,0.9843,0.989,0.9922,0.9956,1.0008,1.0028,1.0079,1.0102,1.0136,1.0175,1.0183,1.022,1.0246,1.0286,1.0303,1.0358,1.0369,1.0382,1.0386,1.0382,1.0381,1.04,1.0398,1.0394,1.0393,1.0393,1.0392,0,0.9894,0.9917,0.9977,1.002,1.0032,1.0069,1.0106,1.014,1.016,1.0209,1.0222,1.0254,1.0302,1.0326,1.0386,1.0397,1.046,1.0461,1.0446,1.0449,1.048,1.0477,1.0575,1.0589,1.0514,1.0514,1.0515,0,0.9935,0.9971,1.0017,1.0043,1.0066,1.0109,1.0137,1.0157,1.0186,1.0233,1.0261,1.0309,1.0348,1.0424,1.0453,1.0499,1.0502,1.0533,1.051,1.0504,1.0504,1.0503,1.0507,1.0539,1.0539,1.054,1.054,0,1.0006,1.0015,1.0055,1.0099,1.0132,1.0168,1.0203,1.0224,1.025,1.0283,1.0331,1.0361,1.0421,1.0469,1.0516,1.054,1.0545,1.0547,1.0557,1.0554,1.0545,1.0552,1.046,1.0545,1.0545,1.0545,1.0544,1.0544,1.0055,1.0087,1.0124,1.0169,1.0197,1.0229,1.0263,1.0286,1.0326,1.0376,1.0385,1.0437,1.0475,1.0539,1.0564,1.0605,1.0598,1.0613,1.0617,1.062,1.0622,1.0536,1.0613,1.0613,1.0613,1.0613,1.0613,0,1.0127,1.0151,1.0191,1.024,1.0275,1.0274,1.0312,1.0342,1.0386,1.0421,1.0459,1.0514,1.056,1.0592,1.0638,1.0665,1.0668,1.0676,1.0676,1.0681,1.0625,1.0612,1.0673,1.0673,1.0673,1.0673,1.0673,1.0673,1.017,1.0224,1.0238,1.0306,1.033,1.0379,1.0402,1.0432,1.0459,1.052,1.0558,1.0577,1.0611,1.066,1.0702,1.071,1.0727,1.0736,1.0744,1.0691,1.0685,1.0679,1.0667,1.0739,1.0739,1.0798,1.0798,1.0799]},{"header":{"parameterUnit":"m.s-1","parameterCategory":1,"la1":30.2991,"la2":30.254,"lo1":-89.0895,"lo2":-89.0444,"dx":0.0017,"dy":0.0017,"nx":28,"ny":28,"refTime":"2023-01-17T09:00:00:Z","depth":0,"parameterNumber":3,"parameterNumberName":"V-component_of_WINDS"},"data":[0,0,0,0,0,0,0,0,0,0,0,0,0,0,0,0,0,0,0,0,0,0,0,0,0,0,0,0,0,0,0,0,0,0,0,0,0,0,0,0,0,0,0,0,0,0,0,0,0,0,0,0,0,0,0,0,0,0,3.5846,3.5846,0,3.5846,3.5846,3.5846,3.5802,3.5801,3.5799,3.5798,3.5798,3.5799,3.58,0,0,0,0,0,0,0,0,0,0,0,0,0,3.5808,3.5809,3.5846,3.5846,3.5846,3.5846,3.5846,3.5846,3.5802,3.58,3.5799,3.5798,3.5798,3.5799,3.58,0,0,0,0,0,0,0,0,0,0,0,0,0,3.5818,3.5809,3.5846,3.5824,3.5822,3.5846,3.5846,3.5846,3.5802,3.58,3.5799,3.5797,3.5797,3.5799,3.58,3.5845,0,0,3.5805,3.5806,0,0,0,0,0,0,0,0,3.5817,3.5819,3.5827,3.5826,3.5823,3.5822,3.5832,3.5845,3.5803,3.581,3.5798,3.5796,3.5807,3.5808,3.5812,3.5845,3.5845,3.5805,3.5806,3.5807,3.5807,0,0,0,0,0,0,0,3.5817,3.5819,3.5846,3.5827,3.5825,3.5814,3.5814,3.5834,3.5818,3.5809,3.5806,3.5806,3.5806,3.581,3.5811,3.5845,3.5805,3.5807,3.5808,3.5808,3.5915,3.5917,0,0,0,0,0,0,3.5819,3.5819,3.5846,3.5846,3.5816,3.5816,3.5816,3.5824,3.5818,3.5815,3.5808,3.5804,3.5808,3.581,3.5811,3.5864,3.5807,3.5809,3.5809,3.5913,3.5915,3.5917,0,0,0,0,0,0,3.5819,3.5822,3.5846,3.5831,3.5834,3.5819,3.5829,3.5825,3.5829,3.5817,3.5814,3.5815,3.5807,3.5809,3.5837,3.5864,3.5809,3.5811,3.5911,3.5914,3.5916,3.597,0,0,0,0,0,0,3.5818,3.5822,3.5839,3.5832,3.5835,3.5872,3.583,3.5826,3.5832,3.5828,3.5823,3.5821,3.5806,3.5835,3.5839,3.5865,3.5812,3.5908,3.5912,3.5915,3.5966,3.5974,3.5981,0,0,0,0,0,3.5816,3.5854,3.584,3.5844,3.5856,3.5874,3.5875,3.5857,3.5835,3.5852,3.5843,3.5821,3.5859,3.5838,3.5842,3.5869,3.5907,3.5911,3.5915,3.5962,3.5972,3.5981,0,0,0,0,0,0,3.5865,3.5853,3.5837,3.5874,3.5875,3.5866,3.5887,3.5868,3.5876,3.5872,3.5848,3.5848,3.588,3.5876,3.5853,3.5912,3.5879,3.5884,3.5914,3.5923,3.5931,3.5932,3.5813,0,0,0,0,0,3.5879,3.5895,3.5884,3.5917,3.5918,3.5903,3.591,3.5896,3.5896,3.5897,3.589,3.5892,3.5904,3.5913,3.5923,3.5964,3.5963,3.5984,3.5992,3.5998,3.6004,3.6027,3.6036,3.5931,3.5931,3.5931,0,0,3.591,3.5906,3.5917,3.5926,3.5926,3.5943,3.5904,3.5923,3.5936,3.5899,3.5926,3.5921,3.5921,3.5956,3.5971,3.5954,3.6033,3.6004,3.6009,3.6011,3.6032,3.6042,3.6051,3.5934,3.5933,3.5933,0,0,3.5976,3.5974,3.6002,3.6002,3.6001,3.599,3.5997,3.5991,3.5986,3.6012,3.5986,3.6,3.6021,3.6023,3.6026,3.6091,3.6072,3.6095,3.6137,3.6159,3.6168,3.6175,3.62,3.621,3.61,3.61,3.61,0,3.6015,3.604,3.6019,3.604,3.6046,3.6012,3.6041,3.6042,3.6045,3.6049,3.603,3.6057,3.6054,3.6089,3.6105,3.6108,3.6116,3.6097,3.6168,3.6175,3.6182,3.6206,3.6215,3.6103,3.6103,3.6103,3.6102,0,3.6089,3.6107,3.6129,3.6133,3.614,3.6165,3.6148,3.6157,3.6142,3.6133,3.616,3.6155,3.6165,3.6172,3.6157,3.6205,3.6195,3.6172,3.6139,3.6195,3.6218,3.6226,3.6108,3.6107,3.6106,3.6105,0,0,3.6189,3.6179,3.6188,3.619,3.6186,3.6199,3.6222,3.6231,3.6241,3.6243,3.6263,3.6281,3.626,3.6264,3.6248,3.6267,3.6322,3.6242,3.6242,3.626,3.6377,3.6396,3.6407,3.6307,3.6309,3.631,3.6378,0,3.6254,3.6294,3.6275,3.6317,3.6334,3.6302,3.6322,3.6322,3.6313,3.6326,3.6316,3.6331,3.63,3.6303,3.632,3.6312,3.6345,3.6306,3.6327,3.6328,3.6331,3.6419,3.6439,3.6504,3.6386,3.6387,3.6388,0,3.6338,3.6344,3.6388,3.6381,3.6387,3.6406,3.6413,3.6425,3.6424,3.6416,3.6421,3.64,3.6423,3.6388,3.6419,3.6392,3.6399,3.6396,3.6398,3.6402,3.6364,3.6428,3.6523,3.6535,3.6401,3.64,3.6399,0,3.6409,3.6428,3.6457,3.6459,3.6451,3.6465,3.6463,3.646,3.6467,3.6472,3.6476,3.6484,3.649,3.6496,3.6479,3.6454,3.6513,3.6476,3.6509,3.651,3.6525,3.6525,3.6627,3.6525,3.6524,3.6524,3.6524,0,3.6487,3.6516,3.6489,3.6508,3.6539,3.6515,3.6547,3.6541,3.6538,3.6555,3.6526,3.6542,3.6517,3.653,3.6516,3.6545,3.6547,3.6543,3.6539,3.6547,3.6548,3.6554,3.655,3.6527,3.6526,3.6526,3.6525,0,3.6574,3.6557,3.6587,3.6576,3.6574,3.6598,3.6589,3.6606,3.6595,3.6616,3.662,3.6603,3.6617,3.6599,3.6612,3.6603,3.6643,3.6631,3.6644,3.6642,3.6677,3.6675,3.6788,3.6803,3.6688,3.669,3.669,0,3.6626,3.6648,3.664,3.6649,3.6648,3.6663,3.6669,3.6646,3.6654,3.6654,3.6671,3.6683,3.6692,3.6716,3.6705,3.6715,3.6705,3.6744,3.6707,3.6714,3.6709,3.6709,3.6712,3.6753,3.6754,3.6755,3.6756,0,3.6722,3.6713,3.6724,3.6732,3.674,3.6745,3.6748,3.6757,3.6733,3.6743,3.6758,3.6764,3.6777,3.679,3.6797,3.6794,3.6772,3.6767,3.6776,3.6786,3.6794,3.6793,3.6668,3.6766,3.6765,3.6764,3.6764,3.6763,3.6796,3.6814,3.6811,3.6824,3.6823,3.6827,3.6842,3.6832,3.6844,3.6853,3.6838,3.6856,3.6854,3.686,3.686,3.6874,3.6858,3.687,3.6873,3.6878,3.6884,3.6789,3.6875,3.6875,3.6874,3.6874,3.6874,0,3.6893,3.6889,3.6901,3.6906,3.6916,3.6892,3.6894,3.6905,3.6922,3.6921,3.693,3.6947,3.6959,3.6948,3.6957,3.6971,3.6962,3.6975,3.6976,3.6976,3.6897,3.689,3.6983,3.6983,3.6983,3.6983,3.6983,3.6983,3.6945,3.6975,3.6965,3.6994,3.6989,3.7007,3.7011,3.7014,3.7013,3.7033,3.7043,3.7035,3.7031,3.704,3.705,3.7046,3.7053,3.707,3.7064,3.6991,3.6981,3.6971,3.6964,3.7071,3.7071,3.7141,3.7142,3.7143]}]]